CW9203 Weather Reports


time (UTC)temp
C
wind
direction
speed
KPH
gust
KPH
rain 1hr
cm
rain 24hr
cm
rain mn
cm
humidity
%
barometer
mb
20260506034803 21 346 6.4 16.1 0.00 0.00 0.00 46 1028.1
20260506034304 21 350 8.0 20.9 0.00 0.00 0.00 48 1028.2
20260506033804 21 27 4.8 16.1 0.00 0.00 0.00 49 1028.2
20260506033303 21 339 3.2 12.9 0.00 0.00 0.00 46 1028.2
20260506032804 21 16 9.7 20.9 0.00 0.00 0.00 52 1028.1
20260506032306 21 8 9.7 24.1 0.00 0.00 0.00 51 1028.1
20260506030804 21 346 3.2 14.5 0.00 0.00 0.00 39 1028.2
20260506030304 21 318 1.6 16.1 0.00 0.00 0.00 37 1028.2
20260506025305 21 20 4.8 12.9 0.00 0.00 0.00 49 1028.4
20260506022804 21 330 3.2 4.8 0.00 0.00 0.00 46 1028.3
20260506021804 21 340 4.8 24.1 0.00 0.00 0.00 45 1028.3
20260506021304 21 348 8.0 22.5 0.00 0.00 0.00 47 1028.4
20260506015804 21 325 3.2 8.0 0.00 0.00 0.00 32 1028.4
20260506015305 21 342 4.8 19.3 0.00 0.00 0.00 4 1028.5
20260506014804 21 325 3.2 19.3 0.00 0.00 0.00 4 1028.5
20260506014303 20 31 11.3 19.3 0.00 0.00 0.00 4 1028.4
20260506013804 20 26 8.0 19.3 0.00 0.00 0.00 4 1028.5
20260506013303 20 350 8.0 19.3 0.00 0.00 0.00 4 1028.6
20260506011804 20 21 8.0 19.3 0.00 0.00 0.00 4 1028.6
20260506011303 20 41 6.4 16.1 0.00 0.00 0.00 4 1028.7
20260506010803 20 346 4.8 14.5 0.00 0.00 0.00 4 1028.7
20260506005804 21 336 3.2 12.9 0.00 0.00 0.00 4 1028.8
20260506004804 20 326 3.2 20.9 0.00 0.00 0.00 4 1028.8
20260506001803 20 29 8.0 16.1 0.00 0.00 0.00 4 1029.4
20260506000304 20 14 8.0 19.3 0.00 0.00 0.00 4 1029.5
20260505235803 20 337 9.7 22.5 0.00 0.00 0.00 4 1029.6
20260505235305 20 53 8.0 19.3 0.00 0.00 0.00 4 1029.7
20260505234803 20 17 9.7 19.3 0.00 0.00 0.00 4 1029.7
20260505234304 20 33 8.0 19.3 0.00 0.00 0.00 4 1029.8
20260505233804 20 15 6.4 16.1 0.00 0.00 0.00 4 1029.9
20260505231303 20 42 6.4 14.5 0.00 0.00 0.00 4 1030.0
20260505225305 20 12 4.8 14.5 0.00 0.00 0.00 4 1030.3
20260505223303 19 345 3.2 12.9 0.00 0.00 0.00 4 1030.4
20260505222804 18 4 4.8 9.7 0.00 0.00 0.00 4 1030.4
20260505222306 18 51 4.8 9.7 0.00 0.00 0.00 4 1030.4
20260505221804 18 336 4.8 11.3 0.00 0.00 0.00 4 1030.6
20260505220803 18 54 4.8 9.7 0.00 0.00 0.00 4 1030.7
20260505215804 17 29 8.0 11.3 0.00 0.00 0.00 4 1030.7
20260505215305 17 32 8.0 14.5 0.00 0.00 0.00 4 1030.7
20260505205803 17 50 4.8 12.9 0.00 0.00 0.00 4 1030.8
20260505204803 16 44 4.8 9.7 0.00 0.00 0.00 4 1030.8
20260505204304 16 41 6.4 11.3 0.00 0.00 0.00 4 1030.8
20260505202807 16 43 3.2 4.8 0.00 0.00 0.00 4 1030.8
20260505191804 15 52 0.0 0.0 0.00 0.00 0.00 4 1030.3
20260505190306 15 56 1.6 3.2 0.00 0.00 0.00 4 1030.2
20260505184304 15 77 0.0 1.6 0.00 0.00 0.00 4 1030.1
20260505183804 15 55 0.0 0.0 0.00 0.00 0.00 4 1030.2
20260505182804 15 68 0.0 0.0 0.00 0.00 0.00 4 1030.1
20260505181804 15 40 0.0 1.6 0.00 0.00 0.00 4 1030.1
20260505180803 15 40 0.0 1.6 0.00 0.00 0.00 4 1030.1
20260505180304 15 42 0.0 3.2 0.00 0.00 0.00 4 1030.0
20260505174803 15 60 1.6 4.8 0.00 0.00 0.00 4 1030.0
20260505174304 15 64 3.2 4.8 0.00 0.00 0.00 4 1029.9
20260505173304 15 75 1.6 4.8 0.00 0.00 0.00 4 1030.0
20260505172804 15 73 0.0 1.6 0.00 0.00 0.00 4 1030.0
20260505172305 15 90 0.0 1.6 0.00 0.00 0.00 4 1030.1
20260505170805 15 88 1.6 3.2 0.00 0.00 0.00 4 1030.2
20260505164304 15 109 1.6 3.2 0.00 0.00 0.00 4 1030.3
20260505163305 15 27 0.0 3.2 0.00 0.00 0.00 4 1030.4
20260505162805 15 84 1.6 4.8 0.00 0.00 0.00 4 1030.3
20260505162306 15 76 3.2 4.8 0.00 0.00 0.00 4 1030.2
20260505160804 15 48 3.2 8.0 0.00 0.00 0.00 4 1030.2
20260505160304 15 51 4.8 11.3 0.00 0.00 0.00 4 1030.2
20260505151305 15 47 4.8 11.3 0.00 0.00 0.00 4 1030.4
20260505150805 15 49 4.8 8.0 0.00 0.00 0.00 4 1030.5
20260505140304 16 50 3.2 8.0 0.00 0.00 0.00 4 1031.1
20260505130304 16 43 1.6 4.8 0.00 0.00 0.00 4 1031.7
20260505124804 16 47 3.2 4.8 0.00 0.00 0.00 4 1031.7
20260505123804 16 45 3.2 4.8 0.00 0.00 0.00 4 1031.6
20260505122305 16 61 3.2 8.0 0.00 0.00 0.00 4 1031.7
20260505121305 16 56 4.8 8.0 0.00 0.00 0.00 4 1031.7
20260505120823 16 41 3.2 4.8 0.00 0.00 0.00 4 1031.8
20260505120305 16 64 4.8 4.8 0.00 0.00 0.00 4 1031.8
20260505115305 16 50 4.8 8.0 0.00 0.00 0.00 4 1031.8
20260505114304 16 61 4.8 8.0 0.00 0.00 0.00 4 1031.7
20260505113805 16 70 3.2 8.0 0.00 0.00 0.00 4 1031.7
20260505113304 16 65 3.2 4.8 0.00 0.00 0.00 4 1031.6
20260505112804 16 61 3.2 8.0 0.00 0.00 0.00 4 1031.7
20260505112305 16 44 4.8 8.0 0.00 0.00 0.00 4 1031.7
20260505111804 16 39 3.2 8.0 0.00 0.00 0.00 4 1031.9
20260505110305 16 39 3.2 4.8 0.00 0.00 0.00 4 1031.9
20260505101804 16 34 3.2 8.0 0.00 0.00 0.00 4 1032.2
20260505101305 16 46 4.8 8.0 0.00 0.00 0.00 4 1032.2
20260505100305 16 51 4.8 8.0 0.00 0.00 0.00 4 1032.2
20260505095305 16 51 3.2 4.8 0.00 0.00 0.00 4 1032.2
20260505094804 16 65 1.6 3.2 0.00 0.00 0.00 4 1032.2
20260505094305 16 66 1.6 4.8 0.00 0.00 0.00 4 1032.2
20260505092804 16 39 1.6 4.8 0.00 0.00 0.00 4 1032.2
20260505091805 16 43 1.6 3.2 0.00 0.00 0.00 4 1032.2
20260505085810 16 58 0.0 1.6 0.00 0.00 0.00 4 1032.1
20260505083806 16 72 0.0 1.6 0.00 0.00 0.00 4 1032.0
20260505082305 16 71 0.0 1.6 0.00 0.00 0.00 4 1032.0
20260505081304 16 76 1.6 3.2 0.00 0.00 0.00 4 1032.0
20260505080804 16 57 1.6 4.8 0.00 0.00 0.00 4 1031.9
20260505080305 16 80 3.2 4.8 0.00 0.00 0.00 4 1031.9
20260505075305 16 84 3.2 4.8 0.00 0.00 0.00 4 1031.9
20260505074804 16 76 3.2 4.8 0.00 0.00 0.00 4 1031.9
20260505074305 16 66 3.2 8.0 0.00 0.00 0.00 4 1032.0
20260505072805 16 50 3.2 8.0 0.00 0.00 0.00 4 1031.9
20260505072305 16 47 4.8 9.7 0.00 0.00 0.00 4 1031.8
20260505071804 16 59 4.8 9.7 0.00 0.00 0.00 4 1031.9
20260505070804 16 53 8.0 12.9 0.00 0.00 0.00 4 1031.8
20260505064804 17 64 6.4 14.5 0.00 0.00 0.00 4 1031.7
20260505064304 17 47 8.0 11.3 0.00 0.00 0.00 4 1031.7
20260505063306 17 36 9.7 14.5 0.00 0.00 0.00 4 1031.7
20260505062805 17 44 6.4 11.3 0.00 0.00 0.00 4 1031.7
20260505061305 17 65 8.0 14.5 0.00 0.00 0.00 4 1031.7
20260505060304 17 49 8.0 16.1 0.00 0.00 0.00 4 1031.7
20260505055304 17 51 6.4 12.9 0.00 0.00 0.00 4 1031.7
20260505054304 17 24 4.8 12.9 0.00 0.00 0.00 4 1031.7
20260505051804 17 54 6.4 14.5 0.00 0.00 0.00 4 1031.7
20260505051305 17 48 6.4 19.3 0.00 0.00 0.00 4 1031.7
20260505050304 17 42 4.8 16.1 0.00 0.00 0.00 4 1031.8
20260505040804 17 61 9.7 19.3 0.00 0.00 0.00 4 1031.9
20260505040304 17 48 8.0 19.3 0.00 0.00 0.00 4 1031.8
20260505035304 17 50 11.3 19.3 0.00 0.00 0.00 4 1031.8